sat.trackr.live / text

‹ back to catalog

STARLINK-30966

NORAD 58454 · 2023-183T

PAYLOAD ACTIVE UNKNOWN

§ Identity

Operator
Country
US
Launch date
2023-11-28
Launch site
AFETR
Launch vehicle
Mass (kg)
RCS (m²)

Purposes: comms

External: N2YO · Heavens-Above · Gunter

§ Orbital elements

Epoch: 2026-05-24T18:53:40.635168Z

Period
94.27 min
Inclination
43.0039°
Eccentricity
0.0001477
Mean motion
15.27586584 rev/d
Perigee alt
482.0 km
Apogee alt
484.0 km
Semi-major
6,861.2 km
B*
7.2826e-5
RAAN
331.7588°
Arg perigee
269.6132°
Mean anomaly
90.4550°
Rev number
13,837

§ Raw data

STARLINK-309661 58454U 23183T   26144.78727587  .00001743  00000+0  72826-4 0  99942 58454  43.0039 331.7588 0001477 269.6132  90.4550 15.27586584138376

JSON: /api/v1/satellites/58454 · /tle

For live sub-satellite position, see the globe view (requires WebGL).

§ Visibility from observer

Set your observer location to see the next 7 days of passes ≥ 10°. The values pass through the URL so the page stays shareable.

No JS? Fill the form by hand. The geolocation button needs JavaScript.